Location: Corralito
(10.2667°N, 66.9500°W)
Time: 17:27:53
(UTC+00:00)

Spot 4 Rocket - Pass Details

Date: 26 April 2024
Orbit: 772 x 777 km, 98.8° (Epoch: 22 May)

Event Time Altitude Azimuth Distance (km) Brightness Sun altitude
Rises 09:04:14 0° 38° (NE) 3,243 8.2 -16.8°
Reaches altitude 10° 09:07:09 10° 55° (NE) 2,315 7.7 -16.2°
Maximum altitude 09:10:46 20° 101° (E) 1,745 6.7 -15.3°
Drops below altitude 10° 09:14:22 10° 146° (SE) 2,313 6.7 -14.5°
Sets 09:17:16 0° 163° (SSE) 3,239 7.3 -13.8°
